[[{"header":{"parameterUnit":"m.s-1","parameterCategory":1,"la1":30.2991,"la2":30.254,"lo1":-89.0895,"lo2":-89.0444,"dy":0.0017,"dx":0.0017,"nx":28,"ny":28,"refTime":"2024-09-28T03:00:00:Z","depth":0,"parameterNumber":2,"parameterNumberName":"U-component_of_WINDS"},"data":[0,0,0,0,0,0,0,0,0,0,0,0,0,0,0,0,0,0,0,0,0,0,0,0,0,0,0,0,0,0,0,0,0,0,0,0,0,0,0,0,0,0,0,0,0,0,0,0,0,0,0,0,0,0,0,0,0,0,2.3428,2.343,0,2.359,2.3592,2.3594,2.3613,2.3611,2.361,2.3608,2.3775,2.3781,2.3787,0,0,0,0,0,0,0,0,0,0,0,0,0,2.3137,2.3142,2.3428,2.343,2.3432,2.359,2.3592,2.3594,2.3613,2.3611,2.3609,2.3608,2.3773,2.378,2.3787,0,0,0,0,0,0,0,0,0,0,0,0,0,2.3278,2.3144,2.3428,2.3461,2.3465,2.3589,2.3592,2.3595,2.3614,2.3611,2.3609,2.3607,2.3771,2.3779,2.3788,2.3891,0,0,2.3815,2.3819,0,0,0,0,0,0,0,0,2.327,2.3288,2.3454,2.3459,2.3464,2.3579,2.3551,2.3694,2.3614,2.3557,2.3608,2.3606,2.3712,2.3725,2.3761,2.3899,2.3906,2.3816,2.3821,2.3825,2.3828,0,0,0,0,0,0,0,2.326,2.3281,2.3492,2.3456,2.3463,2.3468,2.3485,2.3578,2.3646,2.3562,2.3564,2.3583,2.3714,2.3752,2.3765,2.3908,2.3816,2.3824,2.3829,2.3833,2.4139,2.4141,0,0,0,0,0,0,2.3244,2.3273,2.3487,2.3497,2.3359,2.3475,2.3494,2.3545,2.3645,2.3658,2.3585,2.3583,2.3738,2.3755,2.3771,2.3898,2.3825,2.3834,2.3839,2.4136,2.4139,2.4142,0,0,0,0,0,0,2.3238,2.3263,2.3481,2.3386,2.3414,2.3483,2.3539,2.3549,2.3587,2.3662,2.3674,2.3611,2.3737,2.3758,2.3861,2.3904,2.3838,2.3846,2.4133,2.4137,2.4141,2.4152,0,0,0,0,0,0,2.3229,2.326,2.33,2.3387,2.3419,2.3567,2.3541,2.3554,2.3602,2.3602,2.369,2.3703,2.3737,2.3848,2.387,2.3915,2.3853,2.4129,2.4135,2.414,2.4148,2.4156,2.4163,0,0,0,0,0,2.3219,2.3297,2.3302,2.3327,2.3469,2.357,2.3588,2.3626,2.3606,2.3646,2.3694,2.37,2.3896,2.3858,2.3883,2.3931,2.4127,2.4133,2.4139,2.4145,2.4155,2.4163,0,0,0,0,0,0,2.3213,2.3308,2.3315,2.3423,2.3488,2.3573,2.3625,2.3635,2.3707,2.3704,2.3748,2.3768,2.3868,2.391,2.3866,2.4036,2.4009,2.4021,2.4005,2.4015,2.4022,2.4009,2.386,0,0,0,0,0,2.3224,2.3298,2.3377,2.3465,2.3497,2.3555,2.3601,2.3624,2.3693,2.3721,2.3777,2.3844,2.3921,2.397,2.4045,2.4155,2.4174,2.4201,2.4208,2.4214,2.4223,2.4284,2.4297,2.4163,2.4163,2.4163,0,0,2.3249,2.331,2.3353,2.3466,2.3519,2.3594,2.3578,2.3658,2.3715,2.3733,2.3833,2.3876,2.3955,2.4061,2.4111,2.4099,2.4264,2.4222,2.4226,2.4232,2.4292,2.4305,2.4316,2.4167,2.4167,2.4166,0,0,2.3331,2.3385,2.3464,2.3517,2.3598,2.3636,2.3655,2.3739,2.3768,2.3869,2.3884,2.3952,2.4084,2.4139,2.4184,2.4288,2.4296,2.4311,2.435,2.4409,2.4419,2.4429,2.4466,2.4479,2.4321,2.4321,2.4321,0,2.3351,2.3464,2.3503,2.3583,2.3632,2.3652,2.3732,2.3783,2.3884,2.3917,2.3903,2.4069,2.4123,2.4242,2.4268,2.4304,2.4327,2.4301,2.4415,2.4425,2.4434,2.447,2.4484,2.4322,2.4322,2.4322,2.4321,0,2.3484,2.3563,2.3617,2.3714,2.3769,2.3849,2.39,2.3952,2.3971,2.4011,2.4114,2.4179,2.4268,2.4298,2.4318,2.4421,2.4412,2.4406,2.4379,2.4448,2.4482,2.4496,2.4324,2.4323,2.4323,2.4323,0,0,2.3566,2.3684,2.3703,2.3748,2.3838,2.39,2.3981,2.4068,2.4111,2.418,2.4249,2.4361,2.4356,2.4407,2.4433,2.4485,2.4563,2.4473,2.4476,2.4487,2.4682,2.4685,2.47,2.457,2.4572,2.4575,2.4675,0,2.3659,2.3803,2.3841,2.3963,2.4037,2.4057,2.4128,2.4192,2.4232,2.43,2.4344,2.4422,2.441,2.4441,2.4494,2.4543,2.4603,2.4536,2.4634,2.4638,2.4613,2.4718,2.4722,2.4813,2.4689,2.4691,2.4693,0,2.3785,2.3857,2.3987,2.4068,2.4101,2.4163,2.4246,2.4311,2.4384,2.4409,2.4467,2.4488,2.4574,2.4544,2.4663,2.4616,2.4659,2.469,2.4694,2.4704,2.4668,2.4731,2.4843,2.4857,2.4714,2.4712,2.4711,0,2.3831,2.3961,2.4055,2.4092,2.419,2.4234,2.4277,2.4347,2.4397,2.447,2.4502,2.4584,2.4629,2.4692,2.4735,2.4709,2.485,2.4824,2.4874,2.4873,2.4902,2.49,2.5023,2.4931,2.493,2.493,2.493,0,2.393,2.4008,2.4077,2.4135,2.4224,2.4267,2.4354,2.4398,2.4461,2.4528,2.4552,2.4614,2.4668,2.4738,2.4772,2.4866,2.4886,2.4909,2.4917,2.4907,2.4904,2.4935,2.493,2.4934,2.4933,2.4932,2.4932,0,2.3996,2.4045,2.415,2.4234,2.4257,2.4319,2.4391,2.4449,2.4489,2.4574,2.4597,2.4661,2.4745,2.4795,2.4901,2.4924,2.5028,2.5033,2.5003,2.5006,2.5054,2.5048,2.5201,2.5223,2.5116,2.5117,2.5118,0,2.4055,2.4116,2.4207,2.4254,2.4297,2.4372,2.4423,2.4468,2.452,2.4608,2.4655,2.4741,2.4811,2.4945,2.5001,2.5083,2.509,2.5138,2.5103,2.509,2.5091,2.5086,2.5093,2.5144,2.5145,2.5146,2.5146,0,2.4155,2.4177,2.4249,2.433,2.439,2.4456,2.4522,2.4559,2.4615,2.4673,2.4759,2.4813,2.4922,2.5007,2.5093,2.5138,2.5152,2.5157,2.5173,2.5163,2.5142,2.5154,2.5019,2.5153,2.5153,2.5152,2.5152,2.5151,2.422,2.4275,2.4347,2.4427,2.4482,2.4543,2.4601,2.4649,2.4721,2.4813,2.4835,2.4926,2.4998,2.5116,2.5163,2.5235,2.5227,2.525,2.5256,2.5261,2.5262,2.5131,2.5251,2.5251,2.5251,2.525,2.525,0,2.4321,2.4368,2.4441,2.4533,2.4595,2.4603,2.4676,2.4729,2.4808,2.4874,2.4943,2.5042,2.5125,2.5188,2.5273,2.5318,2.5327,2.5339,2.5336,2.5346,2.5264,2.5242,2.533,2.533,2.533,2.533,2.533,2.533,2.438,2.4474,2.4504,2.4625,2.4673,2.4761,2.4803,2.4859,2.4912,2.5022,2.509,2.5131,2.5197,2.5286,2.5363,2.5379,2.5409,2.542,2.5438,2.536,2.5352,2.5343,2.5322,2.5427,2.5427,2.5514,2.5515,2.5515]},{"header":{"parameterUnit":"m.s-1","parameterCategory":1,"la1":30.2991,"la2":30.254,"lo1":-89.0895,"lo2":-89.0444,"dy":0.0017,"dx":0.0017,"nx":28,"ny":28,"refTime":"2024-09-28T03:00:00:Z","depth":0,"parameterNumber":3,"parameterNumberName":"V-component_of_WINDS"},"data":[0,0,0,0,0,0,0,0,0,0,0,0,0,0,0,0,0,0,0,0,0,0,0,0,0,0,0,0,0,0,0,0,0,0,0,0,0,0,0,0,0,0,0,0,0,0,0,0,0,0,0,0,0,0,0,0,0,0,1.758,1.7582,0,1.7745,1.7747,1.7749,1.7788,1.7787,1.7786,1.7785,1.7957,1.7963,1.7968,0,0,0,0,0,0,0,0,0,0,0,0,0,1.7302,1.7307,1.758,1.7582,1.7584,1.7744,1.7747,1.7749,1.7788,1.7787,1.7785,1.7784,1.7955,1.7962,1.7969,0,0,0,0,0,0,0,0,0,0,0,0,0,1.744,1.7308,1.7579,1.7623,1.7628,1.7744,1.7747,1.775,1.7788,1.7787,1.7785,1.7783,1.7953,1.7961,1.797,1.8055,0,0,1.7995,1.7999,0,0,0,0,0,0,0,0,1.7432,1.7451,1.7614,1.762,1.7626,1.7744,1.7712,1.7852,1.7789,1.7728,1.7785,1.7783,1.7888,1.7901,1.7936,1.8063,1.8071,1.7996,1.8001,1.8005,1.8007,0,0,0,0,0,0,0,1.7423,1.7444,1.7645,1.7616,1.7624,1.7635,1.7653,1.7739,1.7815,1.7733,1.7736,1.7755,1.7891,1.7928,1.7941,1.8073,1.7996,1.8003,1.8009,1.8012,1.8281,1.8283,0,0,0,0,0,0,1.7405,1.7435,1.764,1.765,1.7523,1.7641,1.7661,1.7708,1.7814,1.7829,1.7756,1.7756,1.7914,1.7931,1.7947,1.8055,1.8005,1.8013,1.8018,1.8279,1.8281,1.8283,0,0,0,0,0,0,1.7399,1.7423,1.7633,1.7544,1.7571,1.7648,1.77,1.7712,1.7749,1.7832,1.7846,1.778,1.7914,1.7935,1.8028,1.8062,1.8017,1.8024,1.8276,1.828,1.8282,1.8272,0,0,0,0,0,0,1.7391,1.7421,1.7453,1.7544,1.7576,1.7711,1.7702,1.7716,1.7763,1.7765,1.7858,1.7872,1.7914,1.8015,1.8037,1.8073,1.8031,1.8274,1.8278,1.8281,1.827,1.8275,1.8279,0,0,0,0,0,1.7381,1.7444,1.7455,1.7479,1.7618,1.7712,1.7731,1.7777,1.7766,1.78,1.7853,1.7869,1.8054,1.8025,1.8049,1.8088,1.8272,1.8277,1.8281,1.8268,1.8274,1.8279,0,0,0,0,0,0,1.7357,1.7457,1.747,1.7564,1.7629,1.7719,1.7763,1.7781,1.7852,1.7851,1.7906,1.7927,1.8017,1.8062,1.8027,1.8177,1.8163,1.8173,1.8145,1.8151,1.8155,1.8143,1.8038,0,0,0,0,0,1.7362,1.7429,1.7514,1.7589,1.7621,1.7686,1.7729,1.7759,1.7829,1.7858,1.7918,1.7986,1.806,1.8108,1.818,1.8276,1.8298,1.8315,1.832,1.8323,1.8331,1.8386,1.8396,1.8299,1.8299,1.8299,0,0,1.7374,1.7437,1.7477,1.7586,1.764,1.7709,1.7709,1.7783,1.7836,1.7869,1.7961,1.8007,1.8088,1.8183,1.8228,1.8223,1.8362,1.8329,1.833,1.8337,1.8392,1.8401,1.8409,1.8302,1.8301,1.8301,0,0,1.7432,1.7486,1.7555,1.7609,1.7691,1.7734,1.775,1.7837,1.7869,1.7962,1.7989,1.8053,1.8179,1.8235,1.828,1.836,1.8378,1.8382,1.8405,1.8459,1.8466,1.8473,1.8503,1.8513,1.839,1.839,1.839,0,1.7438,1.7543,1.7589,1.7661,1.7709,1.7741,1.7813,1.7863,1.7965,1.7997,1.799,1.8149,1.8205,1.8315,1.8334,1.8369,1.8391,1.8372,1.8461,1.8469,1.8476,1.8505,1.8516,1.839,1.839,1.839,1.839,0,1.7546,1.7618,1.7665,1.7761,1.7814,1.7885,1.7943,1.7991,1.8016,1.8061,1.8155,1.8224,1.8311,1.8339,1.8365,1.8453,1.8448,1.845,1.8437,1.8485,1.8513,1.8525,1.839,1.839,1.839,1.839,0,0,1.7595,1.7715,1.7731,1.7775,1.7868,1.7925,1.7999,1.8083,1.8124,1.8193,1.8257,1.8362,1.8365,1.8417,1.8449,1.8496,1.8556,1.8493,1.8496,1.8503,1.8659,1.8658,1.867,1.8568,1.857,1.8572,1.8653,0,1.7665,1.7796,1.784,1.7949,1.8017,1.8049,1.8113,1.8177,1.8221,1.8286,1.8334,1.8409,1.8406,1.8437,1.8485,1.8538,1.8588,1.8533,1.863,1.8633,1.861,1.8684,1.8683,1.8756,1.8664,1.8666,1.8667,0,1.7765,1.7835,1.795,1.8035,1.8065,1.8122,1.8203,1.8264,1.8338,1.8367,1.8424,1.8452,1.8532,1.8513,1.8624,1.8586,1.8628,1.866,1.8664,1.8676,1.8654,1.87,1.8781,1.8792,1.8685,1.8684,1.8682,0,1.7791,1.7913,1.7998,1.8035,1.8135,1.8175,1.8218,1.8291,1.8339,1.841,1.8442,1.8522,1.8566,1.8628,1.8678,1.866,1.8786,1.8771,1.8813,1.8812,1.8839,1.8837,1.8929,1.8864,1.8863,1.8863,1.8863,0,1.7866,1.7936,1.8011,1.8064,1.8144,1.8194,1.8272,1.8317,1.8381,1.8445,1.8477,1.8536,1.8598,1.8665,1.8705,1.8792,1.8811,1.8837,1.8848,1.8836,1.8832,1.8865,1.8862,1.8866,1.8865,1.8865,1.8864,0,1.7909,1.7961,1.8057,1.8143,1.8167,1.8222,1.8297,1.835,1.8394,1.8474,1.8496,1.8566,1.8647,1.8702,1.8807,1.8833,1.8928,1.8936,1.8903,1.8908,1.8948,1.8944,1.9066,1.9085,1.9004,1.9005,1.9005,0,1.7954,1.8008,1.81,1.8144,1.8188,1.8258,1.8308,1.8359,1.8409,1.8498,1.8541,1.8623,1.8693,1.8821,1.8882,1.8963,1.8974,1.9011,1.8987,1.8973,1.8977,1.8974,1.898,1.9016,1.9016,1.9017,1.9017,0,1.8029,1.8053,1.8121,1.82,1.8257,1.8322,1.8387,1.8421,1.8484,1.8539,1.8622,1.8675,1.8781,1.8864,1.895,1.8997,1.9019,1.9024,1.9039,1.9028,1.9007,1.902,1.8915,1.9022,1.9021,1.9021,1.9021,1.902,1.8076,1.8126,1.8199,1.8275,1.8329,1.8389,1.8443,1.8493,1.8563,1.8653,1.8679,1.8765,1.8839,1.8957,1.9005,1.9074,1.9071,1.9092,1.9097,1.9102,1.9103,1.8994,1.909,1.909,1.909,1.909,1.909,0,1.8154,1.8202,1.8271,1.8361,1.8421,1.8434,1.8506,1.8556,1.8632,1.8698,1.8765,1.8861,1.8941,1.9008,1.9092,1.9135,1.9147,1.9155,1.9153,1.9164,1.91,1.908,1.9144,1.9144,1.9144,1.9144,1.9144,1.9144,1.8202,1.8288,1.832,1.8434,1.8482,1.8566,1.8607,1.8663,1.8716,1.8821,1.8888,1.893,1.8998,1.9086,1.9161,1.9179,1.9209,1.9215,1.9236,1.9175,1.9168,1.9163,1.9144,1.9221,1.9221,1.9295,1.9295,1.9296]}]]